User: anonymous   Login
Location: Newark
(40.9833°N, 0.0333°W)
Time: 12:25:54
(UTC+00:00)
Language:

deb Explorer IX - Orbit

View from above orbital plane
View from above orbital plane
View from above satellite
View from above satellite

Ground track
Ground track

The orbit data is extracted from the following two-line orbital elements,

1    85U 61004C   20304.38742495 +.00000605 +00000-0 +14373-3 0  9997
2    85 038.7725 052.3996 0395030 319.9802 037.2447 14.21126989950298
Epoch (UTC): 30 October 2020 09:17:53
Eccentricity: 0.0395030
inclination: 38.7725°
perigee height: 537 km
apogee height: 1106 km
right ascension of ascending node: 52.3996°
argument of perigee: 319.9802°
revolutions per day: 14.21126989
mean anomaly at epoch: 37.2447°
orbit number at epoch: 95029

The dashed part of the orbit path shows where the satellite is in the earth's shadow,  

DLR